Location: Capannuccia
(43.7000°N, 11.3000°E)
Time: 08:30:42
(UTC+00:00)

STARLINK-1312 - Pass Details

Date: 06 October 2020
Orbit: 549 x 550 km, 53.0° (Epoch: 23 October)

Event Time Altitude Azimuth Distance (km) Brightness Sun altitude
Exits shadow 02:11:45 13° 100° (E) 1,647 6.5 -33.5°
Drops below altitude 10° 02:12:33 10° 90° (E) 1,820 6.9 -33.4°
Sets 02:15:30 0° 69° (ENE) 2,718 8.2 -32.9°
